Fort Smith, AR

1:03 AM CDT on July 24, 2017 (GMT -0500)
Fort Smith Regional

Weather History for KFSM - March, 2012

Change the Weather History Date:

Wednesday, March 14, 2012

  Actual Average Record
Temperature  
Mean Temperature 72 °F 52 °F  
Max Temperature 83 °F 64 °F 86 °F (1967)
Min Temperature 61 °F 41 °F 17 °F (1993)
Degree Days  
Heating Degree Days 0 13  
Month to date heating degree days 107 206  
Since 1 July heating degree days 2243 2879  
Cooling Degree Days 7 0  
Month to date cooling degree days 13 0  
Year to date cooling degree days 13 1  
Growing Degree Days 22 (Base 50)    
Moisture  
Dew Point 58 °F    
Average Humidity 64    
Maximum Humidity 87    
Minimum Humidity 40    
Precipitation  
Precipitation 0.00 in 0.12 in 1.34 in (1990)
Month to date precipitation 4.12 1.65  
Year to date precipitation 10.72 7.22  
Sea Level Pressure  
Sea Level Pressure 30.06 in    
Wind  
Wind Speed 7 mph (SSE)    
Max Wind Speed 20 mph    
Max Gust Speed 24 mph    
Visibility 9 miles    
Events      
T = Trace of Precipitation, MM = Missing Value Source: NWS Daily Summary

Daily Weather History Graph

Daily Weather History Graph

Search for Another Location

Airport or City:

Trip Planner

Search our weather history database for the weather conditions in past years. The results will help you decide how hot, cold, wet, or windy it might be!

Date:

Astronomy

Mar. 14, 2012 Rise Set
Actual Time 7:28 AM CDT 7:24 PM CDT
Civil Twilight 7:03 AM CDT 7:50 PM CDT
Nautical Twilight 6:34 AM CDT 8:19 PM CDT
Astronomical Twilight 6:04 AM CDT 8:49 PM CDT
Moon 1:46 AM CDT (3/14) 11:55 AM CDT (3/14)
Length of Visible Light 12h 46m
Length of Day
11h 55m
Waning Gibbous, 54% of the Moon is Illuminated
Mar 14
Waning Gibbous
Mar 14
Last Quarter
Mar 22
New
Mar 30
First Quarter
Apr 6
Full

Hourly Weather History & Observations

Time (CDT) Temp. Heat Index Dew Point Humidity Pressure Visibility Wind Dir Wind Speed Gust Speed Precip Events Conditions
12:53 AM 64.9 °F - 57.9 °F 78% 30.05 in 10.0 mi NE 3.5 mph - N/A   Scattered Clouds
1:53 AM 62.1 °F - 57.0 °F 84% 30.04 in 9.0 mi NNE 3.5 mph - N/A   Clear
2:53 AM 62.1 °F - 57.0 °F 84% 30.03 in 8.0 mi East 3.5 mph - N/A   Partly Cloudy
3:53 AM 62.1 °F - 57.0 °F 84% 30.02 in 8.0 mi Calm Calm - N/A   Partly Cloudy
4:53 AM 62.1 °F - 57.0 °F 84% 30.03 in 7.0 mi NE 4.6 mph - N/A   Mostly Cloudy
5:24 AM 62.6 °F - 57.2 °F 82% 30.05 in 7.0 mi Calm Calm - N/A   Overcast
5:48 AM 62.6 °F - 57.2 °F 82% 30.05 in 8.0 mi NE 3.5 mph - N/A   Overcast
5:53 AM 63.0 °F - 57.9 °F 84% 30.04 in 8.0 mi Calm Calm - N/A   Overcast
6:53 AM 63.0 °F - 57.9 °F 84% 30.06 in 7.0 mi NE 3.5 mph - N/A   Overcast
7:53 AM 64.0 °F - 59.0 °F 84% 30.07 in 7.0 mi NE 3.5 mph - N/A   Overcast
8:53 AM 64.9 °F - 60.1 °F 84% 30.09 in 7.0 mi ENE 4.6 mph - N/A   Mostly Cloudy
9:53 AM 70.0 °F - 62.1 °F 76% 30.10 in 9.0 mi Calm Calm - N/A   Overcast
10:53 AM 75.9 °F - 60.1 °F 58% 30.10 in 10.0 mi SSW 11.5 mph - N/A   Partly Cloudy
11:53 AM 77.0 °F - 60.1 °F 56% 30.10 in 10.0 mi SW 11.5 mph - N/A   Mostly Cloudy
12:53 PM 79.0 °F - 60.1 °F 52% 30.10 in 10.0 mi SSW 15.0 mph 21.9 mph N/A   Partly Cloudy
1:53 PM 79.0 °F - 60.1 °F 52% 30.08 in 10.0 mi SW 15.0 mph 19.6 mph N/A   Partly Cloudy
2:53 PM 81.0 °F 81.0 °F 57.0 °F 44% 30.05 in 10.0 mi SSW 11.5 mph 20.7 mph N/A   Partly Cloudy
3:53 PM 82.0 °F 81.6 °F 55.9 °F 41% 30.03 in 10.0 mi SW 15.0 mph - N/A   Clear
4:53 PM 82.0 °F 81.7 °F 57.0 °F 42% 30.03 in 10.0 mi SW 15.0 mph - N/A   Scattered Clouds
5:53 PM 81.0 °F 80.8 °F 55.9 °F 42% 30.03 in 10.0 mi SSW 12.7 mph 21.9 mph N/A   Clear
6:53 PM 78.1 °F - 55.9 °F 46% 30.04 in 10.0 mi SSW 10.4 mph - N/A   Clear
7:53 PM 75.0 °F - 57.0 °F 53% 30.06 in 10.0 mi South 4.6 mph - N/A   Clear
8:53 PM 73.0 °F - 57.9 °F 59% 30.05 in 10.0 mi South 3.5 mph - N/A   Partly Cloudy
9:53 PM 70.0 °F - 57.9 °F 65% 30.07 in 10.0 mi Calm Calm - N/A   Clear
10:53 PM 71.6 °F - 57.2 °F 60% 30.09 in 10.0 mi ESE 3.5 mph - N/A   Overcast
11:53 PM 71.1 °F - 59.0 °F 66% 30.07 in 10.0 mi South 3.5 mph - N/A   Overcast